Regional Weather Roundup
Issued by NWS

Home | Current Version | Previous Version | Graphics & Text | Print | Product List | Glossary On
Versions: 1 2 3 4 5 6 7 8 9 10 11 12 13 14 15 16 17 18 19 20 21 22 23 24 25 26 27
000
ASUS45 KBOU 161507
RWRCO

WEATHER ROUNDUP FOR COLORADO
NATIONAL WEATHER SERVICE DENVER/BOULDER CO
900 AM MDT MON OCT 16 2017

NOTE: "FAIR" INDICATES FEW OR NO CLOUDS BELOW 12000 FEET WITH NO
SIGNIFICANT WEATHER AND/OR OBSTRUCTIONS TO VISIBILITY.

COZ001>005-013-030-031-161600-
...NORTHWEST COLORADO...

CITY           SKY/WX    TMP DP  RH WIND       PRES   REMARKS
CRAIG          FAIR      32  22  66 CALM      30.48S
HAYDEN         FAIR      37  16  42 E12       30.50R
MEEKER         FAIR      35  20  54 CALM      30.49S
RABBIT EARS PA FAIR      36   1  23 W6        30.59R
STEAMBOAT SPGS FAIR      28  19  69 CALM      30.50S
WALDEN         FAIR      39  10  30 S9        30.50S
$$

COZ006>008-011-161600-
...WEST CENTRAL VALLEYS...

CITY           SKY/WX    TMP DP  RH WIND       PRES   REMARKS
GRAND JUNCTION FAIR      39  17  41 SE9       30.50R
MONTROSE       FAIR      35  15  44 S5        30.54R WCI  31
EAGLE          FAIR      27  18  69 CALM      30.59R
RIFLE          FAIR      33  19  56 CALM      30.53R
DELTA          FAIR      35  11  37 CALM      30.53R
NUCLA          FAIR      37   5  25 SE5       30.56R
$$

COZ017>023-064>068-161600-
...SOUTHWEST COLORADO...

CITY           SKY/WX    TMP DP  RH WIND       PRES   REMARKS
DURANGO        FAIR      37  17  44 CALM      30.54R
CORTEZ         FAIR      39  15  37 E3        30.51R
PAGOSA SPRINGS FAIR      41  13  32 CALM      30.58R
TELLURIDE      FAIR      44  -6  12 SE6       30.63
WOLF CREEK PAS FAIR      39 -15   9 SW8       30.78R
$$

COZ009-010-012-014-032>034-037-058>063-161600-
...CENTRAL COLORADO...

CITY           SKY/WX    TMP DP  RH WIND       PRES   REMARKS
ASPEN          FAIR      38  11  32 CALM      30.54R
BUENA VISTA    FAIR      33  11  39 CALM      30.54S
COPPER MTN     SNOW      37 -15  10 W12       30.68R VSB 1/4
BERTHOUD PASS  FAIR      30  21  69 NW33G47   30.61R WCI  14
COTTONWOOD PAS FAIR      50 -17   6 CALM      30.60R
GUNNISON       FAIR      25  12  58 CALM      30.65R
KREMMLING      FAIR      28  23  80 CALM      30.58R
LEADVILLE      FAIR      43  -7  12 CALM      30.59R
MONARCH PASS   FAIR      32  -2  23 SW22      30.80R WCI  19
SALIDA         NOT AVBL
SUNLIGHT       FAIR      36  -8  15 SW7       30.69R
WILKERSON PASS FAIR      37 -13  11 W8        30.66R
$$

COZ069>075-161600-
...SAN LUIS VALLEY/SANGRE DE CRISTO MOUNTAINS...

CITY           SKY/WX    TMP DP  RH WIND       PRES   REMARKS
ALAMOSA        FAIR      33  18  53 CALM      30.58R
DEL NORTE      FAIR      40   8  27 W12       30.58S
LA VETA PASS   FAIR      39  12  33 MISG      30.69R
SAGUACHE       FAIR      34   5  29 NW14      30.59R WCI  24
$$

COZ035-036-038>040-161600-
...NORTHERN COLORADO FRONT RANGE...

CITY           SKY/WX    TMP DP  RH WIND       PRES   REMARKS
DENVER INTL AP PTSUNNY   57  17  21 SW14      30.32R
DMNS CITY PARK   N/A     59  18  20 SE13      30.32S
AURORA         PTSUNNY   57  19  22 S10       30.34R
FRONT RANGE AP PTSUNNY   59  19  21 SW10G17   30.33R
ERIE MUNI ARPT FAIR      45  32  61 CALM      30.36F
BOULDER MUN AP FAIR      45  32  61 CALM      30.31S
CENTENNIAL     PTSUNNY   60  20  21 CALM      30.35R
BROOMFIELD     PTSUNNY   57  28  33 CALM      30.33R
FORT COLLINS   FAIR      41  33  73 CALM      30.31S
LONGMONT       FAIR      46  33  61 CALM      30.32F
$$

COZ041-046-047-076>085-087-088-161600-
...PIKES PEAK/PALMER DIVIDE AND SOUTHERN FOOTHILLS...

CITY           SKY/WX    TMP DP  RH WIND       PRES   REMARKS
COLO. SPRINGS  PTSUNNY   55  23  28 CALM      30.40R
A. F. ACADEMY  PTSUNNY   48  21  34 NE3       30.40S
SCHRIEVER AFB  FAIR      51  21  31 N6        30.39R
CHEYENNE MTN   PTSUNNY   56  18  22 W3        30.36R
ELLICOTT       FAIR     N/A N/A N/A N3        30.37S
FALCON         FAIR      53  18  25 N5        30.43R
FORT CARSON    SUNNY     47  24  41 NW7       30.37R
LIMON          FAIR      48  35  60 CALM      30.35S
MONUMENT HILL  FAIR      54  12  19 SW8       30.43R
CANON CITY     SUNNY     52  18  25 W18       30.37S
WALSENBURG     FAIR      66  14  13 SW8       30.39S
TRINIDAD       FAIR      51  19  28 W16       30.39S
$$

COZ042>045-048>051-090-091-161600-
...NORTHEAST COLORADO...

CITY           SKY/WX    TMP DP  RH WIND       PRES   REMARKS
GREELEY ARPT   FAIR      39  33  79 CALM      30.32R
AKRON          NOT AVBL
BURLINGTON     FAIR      61  31  32 SW9       30.31S
WRAY           FAIR      50  32  50 W3        30.29S
YUMA           NOT AVBL
STERLING       FAIR      41  34  75 SW8       30.27F
HOLYOKE        FAIR      48  32  53 SW8       30.28S
FORT MORGAN    FAIR      38  32  79 W7        30.30F
$$

COZ086-089-092>099-161600-
...SOUTHEAST COLORADO...

CITY           SKY/WX    TMP DP  RH WIND       PRES   REMARKS
PUEBLO         FAIR      44  28  53 SW6       30.36R
LA JUNTA       FAIR      46  29  51 W8        30.34F
LAMAR          FAIR      45  33  63 NW6       30.33S
SPRINGFIELD      N/A     50  34  54 SW12      30.35S
$$




USA.gov is the U.S. government's official web portal to all federal, state and local government web resources and services.